DW6366 Weather Reports


Display with metric or nautical units.
time (UTC)temp
F
wind
direction
speed
MPH
gust
MPH
rain 1hr
in
rain 24hr
in
rain mn
in
humidity
%
barometer
mb
20260906133344 78 166 4.0 9.0 0.00 0.00 0.00 49 1023.4
20260906132404 78 136 4.0 9.0 0.00 0.00 0.00 50 1023.6
20260906131330 76 203 3.0 8.0 0.00 0.00 0.00 52 1023.7
20260906130418 76 121 4.0 8.0 0.00 0.00 0.00 54 1023.8
20260906125337 75 223 3.0 8.0 0.00 0.00 0.00 53 1024.0
20260906124425 75 116 4.0 8.0 0.00 0.00 0.00 55 1024.1
20260906123336 74 208 2.0 10.0 0.00 0.00 0.00 57 1024.2
20260906122349 73 181 5.0 9.0 0.00 0.00 0.00 57 1024.3
20260906121403 73 157 5.0 8.0 0.00 0.00 0.00 55 1024.4
20260906120349 74 179 6.0 11.0 0.00 0.00 0.00 52 1024.6
20260906115354 76 156 3.0 12.0 0.00 0.00 0.00 53 1024.6
20260906114345 75 177 5.0 12.0 0.00 0.00 0.00 56 1024.7
20260906113343 73 105 5.0 11.0 0.00 0.00 0.00 55 1024.8
20260906112400 74 156 4.0 12.0 0.00 0.00 0.00 56 1024.9
20260906111328 74 115 4.0 12.0 0.00 0.00 0.00 56 1025.0
20260906110335 74 176 6.0 10.0 0.00 0.00 0.00 55 1025.0
20260906105321 72 153 5.0 12.0 0.00 0.00 0.00 60 1025.2
20260906104334 72 144 5.0 9.0 0.00 0.00 0.00 58 1025.3
20260906103328 71 208 6.0 10.0 0.00 0.00 0.00 61 1025.3
20260906102355 71 119 5.0 12.0 0.00 0.00 0.00 61 1025.6
20260906101351 71 192 5.0 12.0 0.00 0.00 0.00 60 1025.8
20260906100328 71 196 4.0 13.0 0.00 0.00 0.00 63 1025.9
20260906095330 70 197 4.0 9.0 0.00 0.00 0.00 66 1025.9
20260906094340 69 208 4.0 9.0 0.00 0.00 0.00 65 1026.0
20260906093330 69 208 4.0 10.0 0.00 0.00 0.00 64 1025.9
20260906092412 70 176 6.0 12.0 0.00 0.00 0.00 65 1025.9
20260906091345 69 136 5.0 9.0 0.00 0.00 0.00 67 1026.2
20260906090355 68 154 3.0 10.0 0.00 0.00 0.00 69 1026.4
20260906085404 67 184 4.0 8.0 0.00 0.00 0.00 71 1026.4
20260906084358 66 148 4.0 8.0 0.00 0.00 0.00 73 1026.5
20260906083338 65 106 3.0 8.0 0.00 0.00 0.00 77 1026.6
20260906082358 64 162 4.0 8.0 0.00 0.00 0.00 80 1026.5
20260906081357 63 208 3.0 8.0 0.00 0.00 0.00 84 1026.5
20260906080354 61 208 5.0 10.0 0.00 0.00 0.00 88 1026.3
20260906075333 60 114 4.0 9.0 0.00 0.00 0.00 91 1026.2
20260906074351 59 169 3.0 6.0 0.00 0.00 0.00 92 1026.4
20260906073327 58 145 2.0 7.0 0.00 0.00 0.00 93 1026.5
20260906072351 58 155 1.0 5.0 0.00 0.00 0.00 93 1026.4
20260906071425 57 142 1.0 3.0 0.00 0.00 0.00 93 1026.6
20260906070329 56 138 1.0 3.0 0.00 0.00 0.00 93 1026.5
20260906065329 55 138 0.0 2.0 0.00 0.00 0.00 93 1026.7
20260906064323 55 141 0.0 0.0 0.00 0.00 0.00 92 1026.7
20260906063356 55 141 0.0 1.0 0.00 0.00 0.00 93 1026.6
20260906062410 55 141 0.0 2.0 0.00 0.00 0.00 92 1026.7
20260906061427 55 141 0.0 0.0 0.00 0.00 0.00 93 1026.4
20260906060352 54 141 0.0 2.0 0.00 0.00 0.00 93 1026.3
20260906055328 54 140 0.0 2.0 0.00 0.00 0.00 93 1026.3
20260906054343 53 149 1.0 2.0 0.00 0.00 0.00 92 1026.4
20260906053326 52 150 0.0 0.0 0.00 0.00 0.00 92 1026.2
20260906052350 52 151 0.0 0.0 0.00 0.00 0.00 92 1026.3
20260906051340 52 151 0.0 0.0 0.00 0.00 0.00 92 1026.4
20260906050344 52 151 0.0 0.0 0.00 0.00 0.00 92 1026.3
20260906045337 52 151 0.0 0.0 0.00 0.00 0.00 91 1026.2
20260906044331 52 151 0.0 0.0 0.00 0.00 0.00 91 1026.2
20260906043327 52 232 0.0 0.0 0.00 0.00 0.00 91 1026.2
20260906042352 52 232 0.0 0.0 0.00 0.00 0.00 91 1026.5
20260906041343 52 232 0.0 0.0 0.00 0.00 0.00 91 1026.5
20260906040336 52 232 0.0 0.0 0.00 0.00 0.00 91 1026.5
20260906035320 52 232 0.0 0.0 0.00 0.00 0.00 91 1026.6
20260906034325 52 248 0.0 0.0 0.00 0.00 0.00 91 1026.6
20260906033337 53 248 0.0 0.0 0.00 0.00 0.00 91 1026.7
20260906032335 53 248 0.0 0.0 0.00 0.00 0.00 91 1026.8
20260906031330 53 248 0.0 0.0 0.00 0.00 0.00 91 1026.9
20260906030346 53 248 0.0 0.0 0.00 0.00 0.00 90 1026.8
20260906025340 53 248 0.0 0.0 0.00 0.00 0.00 91 1026.5
20260906024328 53 248 0.0 0.0 0.00 0.00 0.00 90 1026.9
20260906023352 53 248 0.0 0.0 0.00 0.00 0.00 90 1026.9
20260906022346 53 252 0.0 0.0 0.00 0.00 0.00 90 1027.1
20260906021321 53 250 0.0 0.0 0.00 0.00 0.00 90 1027.2
20260906020355 53 250 0.0 0.0 0.00 0.00 0.00 90 1027.2
20260906015329 53 250 0.0 0.0 0.00 0.00 0.00 90 1027.4
20260906014348 53 250 0.0 0.0 0.00 0.00 0.00 90 1027.3
20260906013348 53 250 0.0 0.0 0.00 0.00 0.00 90 1027.0
20260906012347 53 250 0.0 0.0 0.00 0.00 0.00 89 1027.0
20260906011330 54 250 0.0 0.0 0.00 0.00 0.00 89 1026.9
20260906010327 54 250 0.0 0.0 0.00 0.00 0.00 89 1027.0
20260906005339 54 250 0.0 0.0 0.00 0.00 0.00 89 1027.2
20260906004328 54 250 0.0 0.0 0.00 0.00 0.00 89 1027.1
20260906003352 54 250 0.0 0.0 0.00 0.00 0.00 89 1027.1
20260906002349 54 250 0.0 0.0 0.00 0.00 0.00 88 1027.1
20260906001356 54 250 0.0 0.0 0.00 0.00 0.00 88 1027.1
20260906000327 54 250 0.0 0.0 0.00 0.00 0.00 88 1027.0
20260905235354 54 250 0.0 0.0 0.00 0.00 0.00 88 1026.9
20260905234353 55 250 0.0 0.0 0.00 0.00 0.00 88 1027.0
20260905233351 55 250 0.0 0.0 0.00 0.00 0.00 88 1026.9
20260905232339 55 250 0.0 0.0 0.00 0.00 0.00 88 1027.0
20260905231328 55 250 0.0 0.0 0.00 0.00 0.00 87 1026.8
20260905230355 55 250 0.0 0.0 0.00 0.00 0.00 87 1026.8
20260905225346 55 248 0.0 0.0 0.00 0.00 0.00 87 1026.8
20260905224339 56 248 0.0 0.0 0.00 0.00 0.00 86 1026.8
20260905223329 56 249 0.0 0.0 0.00 0.00 0.00 86 1026.8
20260905222414 56 249 0.0 0.0 0.00 0.00 0.00 85 1026.8
20260905221344 56 249 0.0 0.0 0.00 0.00 0.00 85 1026.7
20260905220321 56 249 0.0 0.0 0.00 0.00 0.00 85 1026.6
20260905215324 57 252 0.0 0.0 0.00 0.00 0.00 85 1026.6
20260905214401 57 252 0.0 0.0 0.00 0.00 0.00 84 1026.7
20260905213343 57 252 0.0 0.0 0.00 0.00 0.00 84 1026.4
20260905212352 58 252 0.0 0.0 0.00 0.00 0.00 84 1026.6
20260905211325 58 252 0.0 0.0 0.00 0.00 0.00 83 1026.4
20260905210344 58 331 0.0 0.0 0.00 0.00 0.00 82 1026.3
20260905205336 59 331 0.0 0.0 0.00 0.00 0.00 82 1026.3
20260905204329 59 331 0.0 0.0 0.00 0.00 0.00 81 1026.2
20260905203322 60 331 0.0 0.0 0.00 0.00 0.00 80 1026.2
20260905202352 60 331 0.0 0.0 0.00 0.00 0.00 79 1026.2
20260905201328 60 331 0.0 0.0 0.00 0.00 0.00 78 1026.1
20260905200329 61 331 0.0 0.0 0.00 0.00 0.00 76 1026.1
20260905195321 62 331 0.0 0.0 0.00 0.00 0.00 75 1026.2
20260905194320 62 331 0.0 0.0 0.00 0.00 0.00 74 1026.1
20260905193404 63 331 0.0 0.0 0.00 0.00 0.00 74 1026.0
20260905192345 63 329 0.0 0.0 0.00 0.00 0.00 73 1025.9
20260905191346 64 329 0.0 0.0 0.00 0.00 0.00 72 1025.8
20260905190400 64 329 0.0 0.0 0.00 0.00 0.00 72 1025.9
20260905185322 64 329 0.0 0.0 0.00 0.00 0.00 71 1025.8
20260905184333 64 329 0.0 0.0 0.00 0.00 0.00 70 1025.8
20260905183331 65 329 0.0 2.0 0.00 0.00 0.00 70 1025.7
20260905182517 65 329 1.0 5.0 0.00 0.00 0.00 69 1025.6
20260905181406 65 208 1.0 5.0 0.00 0.00 0.00 69 1025.6
20260905180402 65 302 2.0 5.0 0.00 0.00 0.00 68 1025.6
20260905175336 66 208 4.0 7.0 0.00 0.00 0.00 68 1025.5
20260905174348 66 208 4.0 9.0 0.00 0.00 0.00 67 1025.5
20260905173336 66 314 3.0 8.0 0.00 0.00 0.00 67 1025.5
20260905172349 66 307 4.0 9.0 0.00 0.00 0.00 67 1025.5
20260905171420 66 321 5.0 9.0 0.00 0.00 0.00 67 1025.5
20260905170327 67 208 4.0 8.0 0.00 0.00 0.00 66 1025.4
20260905165346 67 320 5.0 9.0 0.00 0.00 0.00 65 1025.3
20260905164411 67 310 3.0 10.0 0.00 0.00 0.00 65 1025.2
20260905163350 67 208 1.0 8.0 0.00 0.00 0.00 64 1025.2
20260905162415 67 295 3.0 8.0 0.00 0.00 0.00 64 1025.0
20260905161335 67 208 5.0 12.0 0.00 0.00 0.00 63 1025.1
20260905160404 69 348 3.0 14.0 0.00 0.00 0.00 61 1025.0
20260905155322 68 208 3.0 11.0 0.00 0.00 0.00 63 1024.9
20260905154346 68 304 5.0 10.0 0.00 0.00 0.00 63 1024.7
20260905153338 69 208 7.0 15.0 0.00 0.00 0.00 61 1024.6
20260905152347 69 208 5.0 18.0 0.00 0.00 0.00 61 1024.6
20260905151329 69 297 9.0 17.0 0.00 0.00 0.00 62 1024.5
20260905150415 67 208 8.0 17.0 0.00 0.00 0.00 63 1024.5
20260905145324 68 300 9.0 18.0 0.00 0.00 0.00 62 1024.6
20260905144343 70 305 8.0 13.0 0.00 0.00 0.00 61 1024.4
20260905143339 67 208 5.0 14.0 0.00 0.00 0.00 64 1024.3
20260905142410 68 304 6.0 14.0 0.00 0.00 0.00 63 1024.1
20260905141358 68 338 7.0 15.0 0.00 0.00 0.00 63 1024.1
20260905140406 68 208 7.0 14.0 0.00 0.00 0.00 65 1023.9
20260905135336 67 309 7.0 16.0 0.00 0.00 0.00 66 1023.9
20260905134413 68 292 9.0 16.0 0.00 0.00 0.00 65 1023.8